sat.trackr.live / text

‹ back to catalog

GAOFEN-1

NORAD 39150 · 2013-018A

PAYLOAD ACTIVE UNKNOWN

§ Identity

Operator
Country
PRC
Launch date
2013-04-26
Launch site
JSC
Launch vehicle
Mass (kg)
RCS (m²)
2.59

Purposes: earth_obs

External: N2YO · Heavens-Above · Gunter

§ Orbital elements

Epoch: 2026-05-25T05:24:28.650240Z

Period
97.52 min
Inclination
97.9094°
Eccentricity
0.0016613
Mean motion
14.76545982 rev/d
Perigee alt
628.6 km
Apogee alt
651.9 km
Semi-major
7,018.4 km
B*
6.6043e-5
RAAN
217.7588°
Arg perigee
344.9373°
Mean anomaly
15.1340°
Rev number
70,485

§ Raw data

GAOFEN-11 39150U 13018A   26145.22533160  .00000410  00000+0  66043-4 0  99982 39150  97.9094 217.7588 0016613 344.9373  15.1340 14.76545982704855

JSON: /api/v1/satellites/39150 · /tle

For live sub-satellite position, see the globe view (requires WebGL).

§ Visibility from observer

Set your observer location to see the next 7 days of passes ≥ 10°. The values pass through the URL so the page stays shareable.

No JS? Fill the form by hand. The geolocation button needs JavaScript.

§ Radio — SatNOGS DB

ModeDescriptionDownlinkUplink
BPSK S-band telemetry 2.235 GHz

1 transmitter · refreshed weekly from db.satnogs.org